Regional Weather Roundup
Issued by NWS Lake Charles, LA

Home | Current Version | Previous Version | Text Only | Print | Product List | Glossary On
Versions: 1 2 3 4 5 6 7 8 9 10 11 12 13 14 15 16 17 18 19 20 21 22 23 24 25 26 27 28 29 30 31 32 33 34 35 36 37 38 39 40 41 42 43 44 45 46 47 48 49 50
000
ASUS44 KLCH 032010
RWRLCH
RWRLCH
REGIONAL WEATHER ROUNDUP
NATIONAL WEATHER SERVICE LAKE CHARLES LA
200 PM CST TUE MAR 03 2015

Note: "fair" indicates few or no clouds below 12,000 feet with no
significant weather and/or obstructions to visibility.


ACROSS SOUTHEAST TEXAS

CITY           SKY/WX    TMP DP  RH WIND       PRES   REMARKS
BEAUMONT       CLOUDY    77  66  68 S22G29    29.96F
BEAUMONT CITY  CLOUDY    74  66  76 S13G21    29.97F
ORANGE         MOCLDY    74  67  78 S16G24    29.99F
JASPER         PTSUNNY   71  64  80 S8        29.98F
$$

ACROSS CENTRAL LOUISIANA

CITY           SKY/WX    TMP DP  RH WIND       PRES   REMARKS
LEESVILLE      PTSUNNY   73  66  78 S18       29.95F
FULLERTON      CLOUDY    76  66  71 VRB6      29.94F
ALEXANDRIA INT CLOUDY    69  66  90 SE6       29.97F
ESLER FIELD    CLOUDY    72  66  81 SW7       29.99F
DERIDDER       MOCLDY    75  64  69 S15G23    29.99F
OAKDALE        CLOUDY    77  67  71 SW13      29.98F
OPELOUSAS      MOCLDY    76  67  73 SW14G20   29.99F
$$

ACROSS SOUTHWEST AND SOUTH CENTRAL LOUISIANA

CITY           SKY/WX    TMP DP  RH WIND       PRES   REMARKS
SULPHUR        MOCLDY    78  68  72 S16G23    29.99F
LAKE CHARLES   PTSUNNY   75  67  76 SW15G23   29.98F
CHENNAULT INT  CLOUDY    75  66  73 S12       29.99F
CAMERON PHI    FOG       66  64  94 S7        30.02F VSB 1/2
DEQUINCY       NOT AVBL
JENNINGS       CLOUDY    74  68  80 S13G20    30.00F
LAFAYETTE        N/A     78  68  71 S16G26    30.00F
NEW IBERIA     PTSUNNY   78  69  73 S18G25    30.01F
ABBEVILLE      NOT AVBL
PATTERSON      CLOUDY    72  70  94 S13G26    30.03F
SALT POINT       N/A     69  69 100 VRB3      30.01F
$$

SELECTED SITES ACROSS THE REGION

CITY           SKY/WX    TMP DP  RH WIND       PRES   REMARKS
HOUSTON BUSH   PTSUNNY   79  65  62 S15G23    29.91F
HOUSTON HOBBY  PTSUNNY   76  67  73 S17G25    29.92F
GALVESTON        N/A     71  67  87 S18       29.96F FOG
COLLEGE STAT   CLOUDY    72  65  78 S15       29.87F
CONROE         PTSUNNY   72  65  78 S13G18    29.92F HAZE
HUNTSVILLE     CLOUDY    72  65  78 S8G17     29.90F
LUFKIN         CLOUDY    73  64  73 S12       29.93F
SHREVEPORT     CLOUDY    65  60  84 S9        29.94F
MONROE         CLOUDY    67  62  84 SE5       29.98F
NATCHEZ MS     CLOUDY    73  68  83 S10       30.00F
BATON ROUGE    CLOUDY    76  69  79 S18       30.01F
N.O. INTL ARPT PTSUNNY   79  66  64 S20       30.04F
SLIDELL        CLOUDY    75  68  78 SE10      30.05F
$$

MARINE REPORTS

STATION/POSITION TIME  TEMP    WIND        PRES    VSBY  WAVE
                       AIR SEA DIR/SP/G                  HT/PER
                 (UTC) (F)     (DEG/KT/KT) (MB)    (MI)  (FT/S)
BUOY 30 S HIGH I 1900   63 59  150/  6/  6 1015.8F         2/ 6
SEA RIM ST PARK  2000   66     170/  8/ 10 1015.4F
PORT ARTHUR      2000      57  200/ 11/ 17 1015.3F
SABINE PASS N    2000   72 56  200/ 12/ 19 1015.2F
TEXAS POINT      NOT AVBL
CALCASIEU PASS   2000   63 56  180/  8/ 10   N/A
LK CHARLES BEACH 2000   75 58              1015.4F
MARSH ISLAND     1900   66     170/ 10/ 12   N/A           0
FRESH WATER LOCK 2000   68 60  140/  7/ 11 1016.3F
AMERADA PASS     2000   70 49  180/  5/ 10 1016.8F
$$


USA.gov is the U.S. government's official web portal to all federal, state and local government web resources and services.